Temp
18 17 17 17 18 18 18 17 17 17 17 17 17 18 18 18 18 18 18 18 18 18 19 19 19 19 19 19 19 19 19 19 19 20 20 20 20 20 20 19 19 19 20 20 20 20 20 19 20 20 19 18 18 19 20 21 21 22 22 22 22 22 22 22 21 21 22 22 23 24 24 24 24 24 23 23 22 22 22 21 21 20 20 20 20
18 17 17 17 17 17 18 18 17 17 17 16 16 16 16 17 18 18 18 18 18 18 19 19 19 19 19 19 19 19 19 20 20 20 20 19 19 19 19 19 19 19 20 20 20 20 19 19 20 20 19 18 18 18 18 19 21 22 22 22 22 22 22 22 22 21 21 22 23 23 23 23 24 24 24 23 23 22 22 21 21 21 20 20 20
17 17 17 17 17 17 17 17 17 17 17 17 17 17 17 17 17 17 17 17 17 17 18 18 19 19 19 19 19 19 20 20 20 20 20 20 19 19 19 19 20 20 20 20 20 19 19 19 19 19 19 19 18 18 17 18 20 22 22 22 22 22 22 22 22 22 22 22 22 21 21 22 23 23 23 23 22 22 22 22 21 21 20 20 20
17 17 17 17 17 17 17 17 17 17 17 17 17 18 18 17 17 17 18 17 17 16 16 16 17 18 18 19 19 19 19 20 20 20 19 19 19 19 18 18 19 19 19 19 19 19 18 19 19 19 18 18 18 17 17 17 19 21 22 22 22 22 22 23 22 22 22 21 20 20 20 21 22 22 22 21 21 20 20 21 21 21 20 20 19
17 17 17 17 16 16 16 17 17 17 17 17 17 17 17 17 17 18 18 18 18 18 17 16 16 17 17 18 18 19 19 19 19 19 19 19 19 19 18 17 18 19 19 19 19 19 19 19 19 19 18 18 17 17 17 17 18 19 20 20 22 22 22 22 22 21 21 20 20 21 21 21 21 21 21 21 21 20 19 19 20 20 20 20 20
17 17 17 17 16 16 16 16 16 16 16 16 16 17 17 17 17 17 17 17 18 18 18 18 17 17 17 17 18 18 18 18 18 18 19 18 18 18 18 17 18 18 18 19 19 19 19 19 19 19 19 18 18 18 18 18 18 17 17 18 20 20 20 20 21 20 19 20 20 20 20 20 20 21 21 20 21 21 20 20 20 20 20 20 20
17 16 16 16 16 16 16 16 16 16 16 16 16 17 17 17 17 17 17 17 17 18 18 18 18 18 18 18 18 18 18 18 18 18 18 18 17 18 18 18 18 18 18 18 18 18 18 18 18 18 18 18 18 18 19 18 18 18 17 17 18 18 17 18 19 18 18 18 18 18 19 19 19 20 20 20 20 20 19 19 19 20 20 19 19
16 16 16 16 16 16 16 15 16 16 16 16 16 16 16 16 16 16 16 17 17 17 17 17 18 18 18 19 19 19 19 18 18 18 18 17 17 17 17 18 18 17 17 18 18 18 18 18 18 18 18 18 18 19 19 19 19 18 18 18 18 18 18 17 17 17 17 17 17 17 17 18 18 19 19 19 19 19 20 19 19 20 20 19 19
16 16 16 16 16 16 16 16 16 16 16 16 16 16 16 16 16 16 16 16 17 17 17 17 17 17 18 18 18 19 19 18 18 18 17 17 17 17 17 17 17 17 17 17 18 18 18 18 18 18 18 18 18 18 18 18 18 18 18 18 18 17 16 17 16 16 16 16 17 17 17 17 18 18 18 18 18 20 20 19 19 19 19 19 19
16 16 16 16 16 16 16 16 16 16 16 16 16 16 16 15 15 16 16 16 16 16 16 16 16 16 17 17 17 18 18 18 17 17 17 17 17 17 17 16 17 17 17 17 17 18 18 18 18 18 18 19 18 18 19 18 18 18 18 18 17 16 15 16 16 16 16 16 16 17 17 17 18 18 18 18 19 19 19 18 18 18 18 17 18
16 16 16 16 16 16 16 16 16 16 15 16 15 15 15 15 15 15 15 15 15 15 15 15 15 15 16 16 16 17 17 17 17 17 17 17 17 16 16 16 16 16 17 17 17 18 18 18 18 18 18 19 19 19 19 19 19 18 18 18 18 17 16 16 16 16 16 16 16 16 17 17 18 18 18 18 18 18 19 18 18 18 17 16 16
16 16 16 16 16 16 16 16 16 15 15 15 15 15 15 15 15 14 14 14 14 14 14 14 15 15 15 15 16 16 16 16 16 16 16 16 16 16 15 15 15 16 16 16 17 17 17 18 18 18 18 19 19 19 19 19 19 19 18 18 18 18 17 17 17 17 16 16 16 16 16 16 17 17 18 18 18 18 18 18 18 17 17 17 16
16 16 16 16 16 16 16 16 15 15 15 15 15 15 15 14 14 13 13 13 13 13 13 13 14 14 14 14 14 15 15 16 16 15 15 15 15 15 14 14 14 14 14 15 15 16 17 17 17 18 18 18 18 19 19 19 19 19 19 18 18 18 18 18 18 18 18 17 16 16 16 16 16 17 18 18 19 18 17 16 17 17 17 17 17
16 15 16 16 15 15 15 15 15 15 15 14 14 14 14 13 13 13 12 12 12 12 12 12 12 13 13 13 13 13 14 14 14 14 14 14 14 14 14 13 13 13 14 14 14 15 16 16 17 17 17 18 18 18 18 18 18 18 18 18 18 18 18 18 19 19 18 17 16 16 18 18 17 18 18 18 18 17 16 16 17 17 16 16 17
16 15 15 15 15 15 15 15 15 14 14 14 14 13 13 12 12 12 11 11 11 11 11 11 11 11 11 12 12 13 13 13 13 13 13 12 12 12 13 13 13 13 14 14 14 15 15 16 16 17 17 17 17 18 18 18 17 17 17 18 18 18 18 18 18 18 18 18 17 17 18 18 18 18 18 18 18 18 17 17 17 16 16 15 16
15 15 15 15 15 15 15 14 14 14 14 14 13 12 12 12 11 11 10 10 10 10 10 10 10 10 11 11 11 12 12 12 12 12 12 12 12 12 12 12 12 13 14 14 15 15 16 16 16 17 17 17 17 17 17 17 17 16 16 16 16 17 17 17 17 18 18 18 18 18 18 18 18 18 19 19 19 19 18 18 18 17 15 15 15
15 15 15 14 14 14 14 14 13 13 13 13 12 12 11 11 10 10 10 10 10 9 9 10 10 10 10 10 11 11 11 11 11 11 11 11 11 11 12 12 12 13 14 15 15 16 16 17 17 17 17 16 16 16 16 16 16 15 14 14 15 15 16 16 16 16 17 17 17 17 17 17 18 18 18 18 18 19 18 18 18 17 16 15 16
15 15 14 14 14 14 14 13 13 13 13 12 11 11 11 10 10 10 9 9 9 9 9 9 9 9 10 10 10 10 10 11 11 11 11 11 11 11 11 12 12 13 14 14 14 15 15 16 16 16 16 15 15 15 15 15 14 13 12 12 12 13 14 14 15 15 15 15 16 16 16 16 16 17 17 17 17 17 17 16 17 18 17 17 17
14 14 14 14 14 14 13 13 12 12 12 11 11 11 11 10 10 9 9 9 9 9 9 9 9 9 10 10 10 10 10 11 11 11 11 11 11 11 11 11 12 12 12 12 12 13 14 14 14 15 14 14 14 14 14 13 12 11 11 10 10 11 12 12 12 12 13 13 13 13 14 14 14 15 15 16 16 16 16 16 16 17 17 17 17
14 14 14 14 14 13 13 12 12 12 12 11 11 11 10 10 10 9 9 9 9 9 9 9 9 10 10 10 10 11 11 11 11 11 11 11 10 10 11 11 11 10 10 10 11 12 13 13 13 13 13 14 14 13 13 12 11 10 10 9 8 9 9 10 10 10 9 10 10 11 11 12 12 13 13 14 15 15 16 17 17 16 16 17 17
13 13 13 13 13 13 13 12 12 12 11 11 11 11 10 10 10 10 10 10 9 9 10 10 10 10 10 11 11 11 11 11 11 11 10 10 10 10 10 10 9 9 9 9 10 10 11 11 11 11 11 12 12 12 12 12 11 10 9 8 8 8 8 8 8 8 8 8 9 9 10 11 12 12 13 13 14 15 15 16 17 17 17 17 17
13 13 13 13 13 12 12 12 12 12 11 11 11 11 11 11 11 11 10 10 10 10 10 10 10 10 11 11 12 12 12 12 11 10 10 9 9 9 9 9 8 8 8 8 8 9 9 9 9 9 9 9 10 11 11 11 11 10 9 9 9 9 8 8 8 8 8 8 8 9 10 10 11 11 12 12 13 13 14 15 16 16 17 16 16
13 13 13 13 13 13 13 13 12 12 12 11 11 12 11 11 11 11 11 10 11 11 11 11 11 11 11 11 12 12 12 11 10 10 9 9 9 9 8 8 8 8 7 7 7 7 8 8 8 8 9 9 10 10 10 10 10 10 10 10 10 9 9 8 8 7 7 8 8 9 10 10 11 11 11 11 12 12 13 14 14 15 16 16 16
13 13 13 13 13 13 13 13 12 12 12 12 12 12 12 12 12 11 11 11 11 11 11 11 11 11 11 11 11 11 11 11 10 9 8 8 8 8 8 8 8 7 7 6 6 7 7 7 8 8 8 9 9 9 9 10 10 10 10 10 10 10 10 9 8 7 7 8 9 9 10 10 11 11 11 11 12 12 12 13 13 14 14 15 15
13 12 13 13 13 13 13 13 12 12 12 12 12 12 12 12 12 12 11 11 11 11 11 11 11 11 11 11 11 11 11 10 9 8 8 8 8 8 9 9 8 7 6 6 7 7 7 7 7 8 9 9 9 10 10 10 10 10 10 10 10 10 10 10 9 8 8 9 10 10 10 11 11 11 11 11 11 12 12 12 13 13 14 14 15
12 12 12 13 13 13 13 13 12 12 12 12 13 13 13 12 12 12 11 11 11 11 11 11 11 10 10 10 10 10 10 10 9 9 8 9 9 9 9 9 8 6 6 6 6 7 7 7 8 9 9 10 10 10 10 10 11 10 11 11 11 11 11 11 10 9 9 10 10 10 11 11 11 11 11 12 12 12 12 13 13 13 14 14 14
12 12 12 13 13 13 13 13 12 13 13 13 13 13 13 12 12 12 11 11 10 10 10 10 10 10 10 10 10 10 10 10 9 9 9 9 9 9 9 8 7 6 6 6 6 7 7 8 9 9 10 10 11 11 11 11 11 11 11 11 11 11 11 11 11 10 10 10 10 10 11 11 11 11 12 12 12 13 13 13 14 14 14 14 15
12 12 12 12 13 13 13 13 13 13 13 13 13 13 12 12 12 12 11 10 10 10 9 10 10 9 9 10 9 9 10 9 9 8 8 8 8 8 8 7 7 7 6 6 6 7 8 9 9 10 10 11 11 11 11 11 11 12 12 12 12 12 11 11 11 11 10 10 10 10 10 10 10 10 11 11 12 13 13 14 14 14 14 15 15
12 12 12 13 13 13 13 13 13 13 13 13 13 13 13 12 12 12 11 11 10 10 9 9 9 9 9 9 9 9 9 9 8 8 8 8 8 8 8 7 7 7 7 6 7 8 9 9 9 10 11 11 11 11 12 12 12 12 12 12 12 12 11 11 11 11 10 10 10 9 9 9 9 9 9 10 11 11 12 13 13 13 14 14 15
13 13 13 13 13 13 13 13 13 13 13 13 13 13 13 13 12 12 11 11 11 11 10 10 9 9 9 9 9 8 8 8 8 8 8 8 8 8 8 8 7 7 7 7 7 8 8 8 9 10 11 11 11 11 11 11 11 11 11 11 11 11 11 11 11 10 9 9 9 9 9 8 8 8 8 8 8 9 9 10 10 11 12 12 13
13 13 14 13 13 13 12 13 13 13 13 13 13 13 13 13 12 12 12 12 11 11 11 10 10 10 10 9 9 9 9 9 9 8 8 8 8 8 8 8 8 8 8 8 8 9 8 8 9 11 11 10 10 10 10 10 10 10 10 10 10 10 10 10 10 9 9 9 9 8 8 8 7 7 7 7 7 7 8 8 9 10 10 11 11
13 13 13 13 13 13 13 13 13 13 13 13 13 13 13 13 13 12 12 12 12 11 11 11 10 10 10 10 10 10 10 9 9 9 8 8 8 8 8 9 9 9 8 8 9 9 9 9 10 10 10 10 10 10 10 9 9 9 9 9 9 9 9 9 9 9 9 9 8 8 7 7 7 6 6 6 6 7 7 8 9 9 10 10 10
13 13 13 13 13 13 13 13 13 13 13 13 13 13 13 13 13 12 12 12 12 12 11 11 11 10 10 10 10 10 10 10 9 9 9 9 9 9 9 9 10 9 9 9 9 9 10 10 10 10 10 10 10 10 9 9 9 9 9 9 9 9 9 8 8 8 8 7 7 7 7 7 6 6 6 6 6 6 6 6 7 7 8 9 9
13 13 13 12 12 12 12 13 13 13 13 13 13 13 13 13 13 12 12 12 12 12 12 12 12 11 11 11 11 11 11 10 10 10 10 9 9 9 9 9 10 10 10 10 10 10 10 10 10 10 10 10 9 9 9 9 9 8 8 8 8 8 8 8 8 7 7 6 6 6 7 6 6 6 6 5 5 5 5 5 5 6 6 7 7
13 13 13 12 12 12 12 12 13 13 13 13 13 13 13 12 12 12 12 13 13 13 13 13 13 12 12 12 12 12 11 11 11 11 10 10 10 9 9 9 10 10 11 10 10 10 10 10 10 9 9 9 9 9 9 8 8 8 8 8 8 7 7 7 7 6 6 5 6 6 6 6 6 5 5 5 5 4 4 4 4 5 5 5 6
13 13 13 13 12 12 12 12 13 13 13 13 13 12 12 12 12 12 13 13 13 13 13 13 13 13 13 13 12 12 11 11 11 11 11 11 10 10 9 9 10 10 11 11 11 11 10 10 9 9 9 9 9 8 8 8 8 8 8 7 7 7 7 7 6 6 5 5 5 5 5 5 4 4 4 4 4 4 4 4 4 4 4 4 4
13 13 13 13 13 12 13 13 13 13 13 12 12 12 12 12 12 13 13 13 13 13 13 13 13 13 13 13 12 12 12 11 11 11 11 11 11 10 10 9 10 10 11 11 11 10 10 9 9 9 9 9 8 8 8 8 7 7 7 7 7 7 6 6 6 5 5 5 5 5 4 4 3 3 3 3 3 3 3 3 4 4 4 4 4
13 13 13 13 13 13 13 13 13 13 13 12 12 12 12 13 13 13 13 13 13 13 13 13 14 14 13 13 13 12 12 11 11 11 11 11 12 11 11 10 10 11 11 11 10 10 10 9 9 9 9 8 8 8 8 7 7 7 7 6 6 6 6 6 5 5 4 4 4 3 3 2 2 2 2 2 2 2 2 3 3 3 4 4 4
13 13 13 13 13 12 12 12 13 13 13 13 13 13 13 13 13 13 13 13 14 14 14 14 14 14 14 14 13 13 12 12 12 12 11 11 11 12 12 11 11 11 11 11 11 10 10 9 9 9 9 8 8 8 7 7 7 6 6 5 5 5 5 4 4 3 3 3 2 2 1 1 1 1 2 2 2 2 2 2 3 3 3 3 3
14 14 13 13 12 12 12 12 12 12 12 13 13 13 13 13 13 14 14 14 14 14 14 14 14 14 14 14 13 13 13 12 12 12 12 11 11 11 11 12 12 11 11 11 11 10 10 9 9 9 8 8 8 7 7 6 6 6 5 5 4 4 4 3 3 2 2 1 1 1 1 1 1 1 1 1 2 2 2 2 3 3 3 3 3
14 14 14 13 13 12 12 12 12 12 12 13 13 13 13 14 14 14 14 14 14 14 14 13 13 13 13 13 13 13 13 13 12 12 11 11 11 11 11 11 11 11 11 11 11 10 10 9 9 8 8 8 7 7 6 6 6 5 5 4 4 3 3 3 2 1 1 1 1 1 1 1 1 0 0 1 2 2 2 2 3 3 3 3 3
14 14 14 14 13 13 13 13 13 13 13 13 13 13 13 14 14 14 14 14 14 13 13 13 13 13 13 13 13 13 13 13 12 12 11 11 11 11 11 11 12 12 11 11 11 11 10 10 9 8 8 8 7 7 6 6 6 5 5 4 4 3 3 3 2 2 2 1 1 1 1 1 1 0 1 1 2 2 2 2 3 3 3 3 3
14 14 14 14 14 13 13 13 13 14 14 14 14 14 14 14 14 14 14 14 13 13 13 13 13 13 13 13 13 13 13 13 12 12 11 11 11 11 11 12 12 12 11 11 11 10 10 10 9 9 8 8 7 7 7 6 6 5 5 5 4 3 3 3 3 3 2 2 1 1 1 1 0 1 1 1 2 2 2 2 3 3 3 3 3
14 14 14 14 14 14 14 14 14 14 14 14 14 14 14 14 14 14 13 13 13 13 13 13 13 13 13 14 14 13 13 12 12 12 12 12 12 12 12 12 12 12 11 11 11 10 10 10 9 9 8 8 8 7 7 6 6 6 6 5 5 5 4 4 3 3 2 2 2 1 1 0 0 0 1 1 1 2 2 3 3 3 3 3 3
14 14 14 14 14 14 14 15 15 15 15 14 14 14 14 14 14 14 14 14 14 14 14 14 13 14 14 14 13 13 13 12 12 12 12 12 12 12 12 12 12 12 12 11 11 10 10 9 9 8 8 8 8 7 7 6 6 6 5 5 5 5 5 4 4 3 3 2 2 1 0 -0 -0 0 1 1 1 2 2 3 3 3 3 3 3
14 14 14 15 15 15 15 15 15 15 15 15 15 15 15 15 14 14 14 14 14 14 14 14 14 14 14 14 13 13 13 13 13 13 13 13 12 12 12 12 12 12 11 11 11 10 10 9 8 8 8 7 7 7 7 6 6 5 5 5 5 5 5 4 4 3 3 2 1 0 -0 -0 -0 0 0 1 1 2 3 3 3 3 3 3 3
15 15 15 15 15 15 15 15 15 15 15 15 15 15 14 14 14 14 14 14 14 14 14 14 14 14 14 13 13 13 13 13 13 13 12 12 12 12 12 12 12 11 11 11 11 10 9 9 8 8 7 7 7 7 6 6 6 5 5 5 5 4 4 4 4 3 2 2 1 1 0 -0 -0 -0 0 0 1 1 2 3 4 4 4 3 3
14 15 15 15 15 15 15 15 15 15 15 15 15 14 14 14 14 14 14 14 14 14 14 14 13 13 13 13 13 13 13 12 12 12 12 12 12 12 12 12 11 11 11 11 10 10 9 8 8 7 7 6 6 6 6 6 6 5 5 4 4 4 4 3 3 3 2 1 1 1 0 -0 -0 -0 0 1 1 1 2 3 4 4 3 3 3
14 15 15 15 15 15 15 15 15 15 14 14 14 14 14 14 14 14 14 14 14 13 13 13 13 13 13 13 12 12 12 12 12 12 11 11 11 11 11 11 11 10 10 10 10 9 9 8 7 7 6 6 6 6 5 5 5 5 4 4 4 3 3 3 3 2 1 1 0 0 0 0 0 1 1 2 1 1 3 4 4 4 3 3 3
14 14 14 14 14 14 14 14 14 14 14 14 14 14 14 14 14 13 13 13 13 13 13 12 12 12 12 12 12 11 11 11 11 11 10 10 10 10 10 10 10 10 10 10 9 9 8 8 7 6 6 5 5 5 4 4 4 4 4 3 3 3 3 2 2 1 1 0 -0 -0 0 1 1 2 2 2 2 2 3 4 4 3 3 3 3
14 14 14 14 14 14 14 14 14 14 14 14 14 14 13 13 13 13 12 12 12 12 12 12 11 11 11 11 11 11 11 10 10 10 9 9 9 9 9 9 9 9 9 9 9 8 8 7 6 6 5 5 4 4 3 3 3 3 3 3 2 2 2 2 1 1 0 -0 -0 -0 0 1 1 2 2 1 1 2 3 4 4 3 3 3 3
Height
801 801 801 802 803 803 803 803 803 803 803 803 802 801 801 801 803 804 806 808 808 807 806 806 807 809 809 810 810 810 810 811 812 813 813 813 813 813 812 813 814 815 815 815 815 814 814 815 815 815 818 821 821 817 814 813 812 813 813 814 814 815 816 817 816 815 815 816 815 815 815 815 815 814 814 814 815 816 816 816 817 817 817 818 818
802 803 803 804 804 804 804 803 804 804 804 804 804 804 804 803 803 803 804 806 807 807 806 806 807 808 808 808 807 808 809 809 810 811 812 812 813 813 813 812 813 813 813 813 813 813 813 813 812 812 814 819 821 820 818 814 811 811 811 811 812 812 813 813 813 812 812 813 814 814 815 816 815 815 815 815 814 813 814 814 814 815 815 815 816
803 803 804 804 804 804 804 804 804 804 804 804 805 805 806 806 806 806 805 805 807 808 808 807 805 805 806 806 806 807 807 808 809 810 811 812 812 812 812 812 812 813 813 812 812 812 813 812 812 812 813 814 815 818 820 817 812 809 809 809 808 809 810 810 810 810 810 811 813 815 816 816 814 813 814 815 815 814 812 811 812 812 812 813 813
803 803 804 805 805 805 805 805 806 806 805 805 805 805 806 806 806 807 807 807 808 810 811 811 809 807 806 805 805 806 807 807 808 808 809 810 810 810 811 811 811 812 812 812 811 811 812 811 812 812 812 812 813 815 818 818 814 809 807 807 806 806 807 808 808 808 809 810 811 812 813 811 809 809 810 811 814 816 815 814 813 812 811 811 811
804 803 804 805 805 805 806 806 806 806 806 806 806 806 806 806 805 806 805 806 806 807 809 810 810 810 808 806 806 807 807 807 808 807 807 808 809 809 810 809 809 809 809 809 809 809 810 809 809 809 809 809 810 813 816 818 817 813 809 807 805 804 805 806 806 806 807 807 806 807 809 809 808 809 808 807 809 812 814 814 815 815 814 812 811
804 804 804 804 805 806 806 806 806 807 806 806 806 806 805 805 805 805 805 804 804 804 805 806 807 808 808 808 808 807 807 807 806 806 806 807 808 808 808 807 807 807 807 807 807 807 807 807 806 806 806 806 806 807 809 813 815 814 813 811 807 805 805 805 804 805 806 806 805 806 808 808 808 807 807 807 806 806 808 807 807 809 811 812 812
805 805 805 805 805 806 806 806 806 806 806 806 806 805 805 805 805 805 805 804 804 804 804 804 805 806 806 806 807 806 805 805 805 805 805 806 807 806 805 805 804 805 805 805 805 805 805 805 805 805 806 806 805 804 805 807 808 809 811 812 811 809 807 806 805 805 806 807 807 807 807 806 806 805 805 805 804 803 803 803 802 802 803 805 808
806 806 806 806 806 806 806 806 806 806 806 806 806 805 805 805 805 805 805 805 805 805 804 804 804 805 805 805 805 805 804 804 804 804 804 804 805 804 803 803 802 802 803 803 803 803 803 803 803 803 804 804 804 804 804 804 804 803 805 807 808 808 807 805 805 805 804 805 806 808 808 806 804 803 803 803 802 799 798 800 798 796 798 800 801
807 807 806 806 806 805 806 806 806 806 806 806 806 806 806 806 806 805 805 805 805 805 805 805 804 804 804 804 804 804 804 803 803 803 803 803 803 803 802 802 801 801 801 801 801 801 801 801 801 801 802 802 802 802 802 803 803 801 800 801 803 805 806 805 804 804 803 802 802 805 807 806 803 801 799 798 797 795 794 795 793 792 795 797 796
808 807 807 807 806 806 806 806 805 806 806 806 806 806 806 806 806 806 805 805 805 804 804 805 804 804 804 804 804 804 804 803 802 802 802 802 802 801 801 801 800 800 800 799 799 799 799 800 799 799 800 800 800 799 799 800 801 799 799 800 801 804 805 804 803 802 801 801 801 803 804 802 799 797 794 792 792 792 791 791 790 791 793 795 792
808 808 807 807 807 807 807 806 806 806 806 806 806 806 806 806 806 805 805 805 805 804 804 804 804 804 804 804 804 804 803 802 801 801 801 800 800 800 799 799 799 798 798 798 798 798 798 798 798 798 798 798 797 797 796 797 798 798 798 799 800 801 802 802 801 800 800 799 800 801 801 799 795 793 791 789 788 788 788 788 788 789 789 790 788
808 808 807 807 808 807 807 807 807 807 807 806 806 806 805 805 805 805 805 804 804 804 804 804 803 803 803 803 803 803 802 801 800 800 799 799 798 798 798 798 797 797 797 796 796 797 797 797 797 797 796 796 796 795 795 794 795 796 796 797 797 798 798 798 797 797 796 796 797 797 797 796 793 791 789 787 784 784 786 787 787 787 786 786 784
809 808 808 808 808 807 808 807 807 807 807 806 806 805 805 804 804 804 804 803 803 803 803 803 802 802 802 802 801 801 801 800 799 799 798 797 797 797 796 796 796 796 795 795 795 795 795 795 795 794 795 795 794 794 793 793 793 793 793 794 794 794 794 793 793 793 792 792 793 792 791 791 789 787 786 785 783 782 784 786 785 784 783 783 782
809 809 809 808 808 808 808 807 808 808 807 807 807 806 805 805 804 804 803 803 802 802 802 801 801 801 801 801 801 800 800 799 798 797 796 796 796 795 795 795 795 794 794 794 793 793 793 793 793 793 793 793 793 793 792 791 790 790 790 791 791 791 791 791 790 790 789 788 788 787 786 786 785 784 783 782 781 780 781 782 781 780 779 778 777
810 811 810 810 809 809 808 808 808 807 807 807 807 806 806 806 805 805 804 803 803 802 801 801 801 800 800 800 800 799 799 798 797 797 796 795 795 795 794 794 794 793 793 792 792 791 791 791 791 791 791 791 791 790 789 788 788 788 788 788 788 789 789 790 790 789 788 786 785 784 783 782 782 781 780 779 778 777 777 777 776 776 776 774 774
811 811 811 811 810 809 809 808 808 807 807 807 806 806 806 806 805 805 804 804 803 802 802 801 801 800 800 799 799 799 798 797 797 796 796 795 795 795 794 794 794 793 792 791 791 790 790 790 790 790 790 790 789 787 786 786 786 786 786 786 786 786 786 787 787 787 787 785 784 783 781 780 780 778 777 776 775 774 774 773 772 772 770 769 768
812 812 812 811 811 810 810 809 809 808 808 807 807 807 806 806 805 805 805 804 804 803 802 802 801 800 800 799 799 798 797 797 796 796 795 795 795 795 795 794 793 793 792 791 791 790 790 790 789 789 788 787 786 785 785 785 784 784 784 784 784 783 783 783 783 783 783 782 781 779 778 776 776 774 774 773 771 772 771 769 768 768 765 763 760
812 812 812 812 811 811 811 810 810 809 808 808 808 807 807 806 806 806 805 805 804 804 803 802 801 800 800 799 798 798 797 797 796 796 795 795 795 795 795 794 794 793 791 790 790 789 789 789 788 788 787 786 785 784 784 783 783 783 783 782 782 781 780 780 778 777 776 775 775 774 773 772 771 769 768 767 767 768 767 764 764 764 760 757 755
813 812 812 812 811 811 811 811 810 810 809 809 809 808 808 808 807 806 806 805 804 804 803 802 802 801 800 799 798 798 797 797 796 796 796 796 796 795 795 795 795 793 792 790 789 788 788 788 787 787 786 785 785 784 783 783 782 782 781 781 779 778 777 777 775 773 771 769 768 768 767 766 766 765 764 763 763 763 762 760 760 759 755 752 750
813 813 812 812 811 811 811 811 811 810 810 810 810 809 809 808 808 807 807 806 805 804 803 802 801 800 800 799 798 797 797 797 797 796 796 796 796 796 796 796 795 794 793 792 791 789 789 788 788 787 786 785 784 783 783 782 781 780 779 778 777 775 773 772 770 770 768 765 764 763 762 761 760 759 759 758 758 757 756 755 754 753 750 747 746
813 813 813 812 812 811 811 811 811 811 811 810 810 809 809 809 808 807 807 806 805 804 803 802 801 800 799 798 797 797 797 797 797 797 797 797 797 797 796 796 796 795 794 793 792 790 789 788 787 786 785 784 783 782 781 780 779 778 777 775 774 772 771 768 765 764 763 761 760 759 758 757 755 754 754 753 752 752 751 750 748 747 744 741 739
812 813 812 812 812 812 811 811 811 811 811 810 810 809 809 809 808 807 807 806 805 804 803 802 802 801 799 798 798 797 797 797 797 797 797 797 797 797 796 796 795 795 793 792 791 790 789 788 787 785 784 783 781 780 778 777 776 775 774 772 771 769 768 766 763 761 759 758 757 756 754 753 751 750 749 748 747 747 746 745 743 742 739 736 734
811 811 811 811 811 811 810 810 810 810 810 810 810 809 809 808 808 807 807 806 805 804 803 802 802 801 800 799 799 799 798 798 798 798 798 798 798 797 796 795 795 794 792 791 790 789 788 787 786 784 782 780 779 778 777 775 774 772 771 770 769 767 766 764 762 760 758 757 755 753 752 751 748 746 745 744 743 742 741 740 739 737 735 732 730
811 811 810 810 810 810 809 809 810 810 810 809 809 809 808 808 808 807 807 806 806 805 804 803 802 801 801 801 800 800 800 799 799 799 799 798 798 796 795 795 793 792 791 790 789 788 787 786 785 782 780 779 777 776 775 774 773 771 770 768 767 766 764 762 760 759 757 756 754 752 750 748 746 744 742 740 739 738 737 735 734 733 730 728 726
810 810 810 810 809 809 809 809 809 809 809 809 808 808 808 808 807 807 807 806 806 805 804 804 803 803 803 802 801 802 801 800 800 800 799 798 797 796 795 794 792 791 790 789 789 788 787 785 783 781 779 778 777 775 774 773 772 770 769 767 766 764 762 760 759 758 756 754 752 750 747 745 743 741 739 737 736 734 732 730 728 727 726 723 721
810 810 810 809 809 809 809 809 809 808 808 808 808 807 807 807 807 807 807 807 807 806 805 805 805 804 804 803 803 803 802 802 801 800 799 798 797 796 794 793 791 790 789 789 788 787 785 783 781 779 778 777 775 774 773 772 771 770 768 766 765 763 761 760 758 757 755 753 750 748 746 743 741 740 738 735 733 731 729 726 723 722 721 719 716
809 809 809 809 809 808 808 809 808 808 808 808 807 807 807 807 807 807 807 807 807 807 806 806 805 805 805 804 804 804 803 802 801 800 799 798 796 795 793 792 791 790 789 788 787 785 783 781 779 778 776 775 774 774 772 771 770 768 766 765 763 762 760 759 757 756 754 752 750 748 745 743 741 738 736 734 731 728 726 723 720 718 717 715 711
809 809 808 808 808 808 808 808 807 807 807 807 807 807 807 807 808 807 807 808 807 807 807 807 806 806 806 805 805 804 804 803 801 800 799 798 796 794 793 791 790 789 788 787 785 783 781 779 777 776 775 774 774 773 771 770 769 767 766 764 763 762 761 759 757 756 754 753 750 747 745 742 740 737 735 732 729 727 725 722 718 716 714 712 708
808 808 807 807 807 807 807 807 806 807 807 806 806 806 806 807 807 807 807 807 807 807 807 806 807 806 806 805 805 804 804 803 802 801 799 797 796 794 792 791 790 789 788 787 785 782 780 778 776 775 774 774 773 772 770 769 768 767 766 764 763 762 760 759 757 756 754 752 750 747 744 742 740 737 734 731 728 726 724 721 718 715 712 709 705
807 806 806 806 806 806 807 807 806 806 806 806 806 806 805 805 806 806 806 806 806 806 806 806 806 805 805 805 804 804 803 802 800 799 798 796 795 794 792 791 790 789 788 787 784 782 780 778 777 775 775 774 773 772 771 769 768 767 766 764 763 762 760 759 757 755 754 752 750 748 745 743 740 737 735 732 729 726 723 720 717 714 712 708 704
806 806 805 805 805 806 807 807 806 806 806 806 806 805 805 804 804 805 805 805 805 805 805 805 805 804 804 804 803 802 801 800 799 798 797 795 794 792 791 790 789 788 787 785 784 782 780 778 777 776 775 775 773 772 771 770 769 768 766 764 763 762 760 759 757 755 754 751 749 748 745 743 741 738 736 733 729 725 722 719 715 713 710 708 705
806 806 806 805 806 806 806 806 806 806 806 805 805 805 805 804 804 804 804 804 804 804 804 804 804 803 803 803 802 801 800 799 799 797 796 794 793 791 790 789 788 787 786 785 783 781 780 779 778 777 776 775 774 773 772 770 769 768 766 765 763 762 760 759 757 756 754 751 749 747 745 743 741 739 736 733 729 725 722 719 715 712 709 706 703
806 806 806 806 806 806 806 806 806 806 805 805 805 805 805 805 804 804 804 803 803 803 802 802 802 802 802 801 800 800 799 798 798 797 795 794 793 791 790 788 787 786 786 784 783 781 780 779 779 777 776 775 774 773 772 771 770 769 767 765 764 762 761 759 757 756 754 752 750 748 745 743 741 738 736 733 730 727 724 720 717 714 710 706 702
806 806 806 806 806 806 806 806 805 805 805 805 805 805 805 805 805 805 804 803 803 802 801 801 801 801 801 800 799 798 798 797 797 796 795 794 792 791 790 788 786 785 785 784 783 782 781 780 779 778 776 775 774 773 772 771 770 768 767 766 764 762 761 759 757 755 754 752 750 748 745 743 741 738 735 733 730 728 725 721 718 715 711 708 704
805 805 805 805 805 805 805 805 805 805 805 805 805 805 805 805 805 805 804 803 803 802 801 800 800 799 799 798 798 797 797 796 796 795 794 792 791 791 789 787 786 785 784 783 783 782 781 780 779 777 776 775 774 773 771 770 769 768 766 765 763 762 760 758 757 755 753 751 749 747 745 743 741 738 736 732 729 727 724 721 719 716 712 709 705
803 804 803 803 804 804 804 804 804 804 804 804 805 805 805 805 805 804 803 803 802 801 801 800 799 798 797 796 796 795 795 795 794 793 792 791 790 790 789 787 786 785 783 783 782 781 780 779 778 777 776 774 773 772 771 770 768 767 766 764 763 761 760 758 756 754 752 751 749 746 744 743 740 738 736 732 729 727 723 720 717 714 712 709 705
802 802 802 802 803 803 803 803 803 803 804 804 804 805 804 804 803 803 802 802 801 800 800 799 798 796 795 794 794 794 793 793 792 792 791 790 789 788 787 785 784 783 782 781 780 779 779 778 777 776 775 773 772 771 770 769 768 766 765 763 762 760 759 757 755 754 752 750 748 746 744 742 740 738 735 732 729 726 722 719 715 712 709 707 703
801 801 801 802 802 802 802 803 802 803 803 803 803 803 803 802 802 802 801 801 800 799 798 797 796 795 794 793 793 792 792 792 791 791 790 789 788 787 785 784 783 782 781 780 779 778 777 776 775 775 773 772 771 770 769 768 767 765 764 762 761 759 758 756 754 753 751 749 748 746 744 742 739 737 734 731 728 724 721 717 714 710 707 704 701
799 799 800 800 800 801 801 801 802 802 802 802 802 802 801 801 801 800 799 799 798 797 797 796 795 795 794 793 792 792 791 791 791 790 789 789 788 786 785 783 782 781 779 778 777 776 775 775 774 773 772 771 770 769 768 767 765 764 763 761 759 758 756 755 753 751 750 749 747 745 743 740 738 735 733 729 726 723 720 716 713 709 706 702 699
797 797 797 798 799 800 800 800 801 801 801 801 801 800 800 799 799 798 798 797 797 796 796 795 794 794 793 792 792 791 791 790 789 789 788 787 786 785 784 782 781 780 778 777 776 775 774 773 772 771 771 770 769 768 767 765 764 763 761 760 758 757 755 753 752 750 748 747 745 743 741 739 736 733 730 727 724 722 718 715 711 708 705 701 697
795 795 795 796 798 798 798 799 800 800 800 800 799 799 798 798 797 797 796 796 795 795 794 794 793 792 791 791 790 789 788 787 786 786 785 785 784 784 782 781 780 779 777 776 775 774 773 772 771 770 769 768 767 766 765 764 762 761 760 758 757 755 753 752 750 749 747 745 742 741 739 737 735 731 728 724 722 719 716 713 710 706 703 699 696
793 794 794 794 795 796 797 797 797 797 798 797 797 797 796 795 795 795 794 794 793 793 792 791 790 789 788 787 786 785 784 783 782 782 782 782 781 781 779 778 777 776 776 775 774 773 772 771 770 769 768 767 766 765 764 762 761 760 758 757 755 753 752 750 749 747 745 743 741 740 738 735 732 729 726 723 720 717 714 710 707 704 701 697 693
792 792 792 793 793 794 794 795 795 795 795 794 794 794 794 793 793 793 792 791 790 789 788 787 786 785 784 783 782 781 780 780 780 779 778 778 777 777 776 775 774 773 773 772 772 771 771 770 769 768 767 766 765 763 762 761 760 758 756 755 753 751 750 748 746 745 743 741 740 738 736 733 730 727 724 721 718 715 712 708 705 702 699 695 691
790 790 791 791 791 792 792 792 792 792 792 791 791 791 790 790 790 789 788 787 787 786 785 784 783 782 782 781 780 779 778 777 777 776 776 775 774 773 773 772 771 771 770 769 769 769 768 768 768 767 766 765 763 762 761 760 759 757 755 754 752 750 748 746 745 743 742 740 738 736 733 730 728 725 722 719 716 713 710 706 703 700 696 693 689
788 788 789 789 789 789 789 789 789 789 788 788 788 787 787 786 786 786 785 785 784 783 783 782 781 780 779 778 778 777 776 775 774 774 773 772 771 770 770 769 768 768 767 767 766 766 766 766 766 765 765 764 762 761 759 758 757 756 755 753 752 749 747 745 744 742 741 739 736 734 731 728 725 723 720 717 714 711 708 705 701 698 695 691 688
785 786 786 786 786 786 786 786 786 786 786 785 785 785 785 784 784 783 783 782 781 781 780 779 778 777 776 775 775 774 773 772 772 771 770 769 769 768 767 766 765 765 765 764 764 763 762 763 763 763 763 762 761 759 758 756 755 754 753 752 750 748 746 744 742 741 739 737 735 732 729 726 722 720 717 714 711 709 706 703 700 696 693 690 686
783 783 783 783 783 783 784 784 784 784 783 783 783 783 782 782 781 781 780 780 779 778 777 776 775 775 773 773 772 771 771 770 769 768 768 767 766 765 765 764 763 762 761 761 761 760 759 760 761 761 761 760 759 758 756 755 753 753 751 750 748 746 744 742 741 739 737 735 732 729 726 723 719 716 714 711 709 706 703 700 697 695 692 688 685
780 780 781 781 781 781 781 781 781 781 781 781 780 780 779 779 778 778 777 777 776 776 775 774 774 773 771 771 770 769 769 768 767 767 766 765 764 763 762 761 760 760 759 758 758 757 756 757 757 758 758 758 757 756 755 753 752 751 749 748 746 744 742 740 739 737 735 732 729 726 723 720 717 714 711 708 706 703 700 698 695 692 690 686 683
777 778 778 778 779 779 779 779 779 778 778 778 778 777 777 776 776 775 775 775 774 774 773 773 772 771 770 769 769 768 767 767 766 765 765 763 763 762 761 759 759 758 757 756 756 756 754 754 754 755 756 756 755 754 753 752 750 749 747 745 744 742 740 738 737 735 732 729 726 723 720 717 714 711 708 705 702 700 698 696 693 690 688 685 681
774 775 776 776 776 777 777 777 777 776 776 776 775 775 774 774 774 774 774 774 773 773 772 771 771 770 769 768 768 767 766 766 765 764 763 763 762 761 760 759 758 756 755 755 754 753 752 752 752 753 753 754 753 753 752 750 748 746 744 743 741 739 738 736 735 733 730 726 723 720 717 714 711 708 705 702 699 697 695 693 690 688 686 683 679
772 773 773 774 774 775 775 774 774 774 774 773 773 773 774 774 774 773 773 773 773 772 771 771 770 769 769 768 767 766 766 765 764 763 763 762 761 760 759 758 757 756 755 753 752 751 750 750 750 750 750 751 751 751 750 748 746 744 742 741 739 737 735 734 732 730 727 724 720 717 714 711 708 705 701 699 697 695 693 691 688 686 684 682 678
Wind_Speed
9 10 11 11 10 9 8 7 4 2 4 7 8 8 9 9 8 9 9 8 8 12 15 15 14 17 18 18 16 15 16 16 15 15 16 17 18 20 20 18 17 18 19 21 20 20 21 23 25 26 24 25 26 25 24 23 23 23 22 22 22 21 22 20 13 11 18 22 21 20 18 17 15 17 22 26 27 27 28 30 30 31 33 33 33
7 9 9 9 10 10 10 9 8 6 3 3 5 6 7 7 8 10 12 10 9 11 14 15 16 17 17 16 15 14 15 16 16 16 17 17 16 17 19 19 20 21 21 21 21 21 22 24 26 24 20 23 29 30 27 24 22 22 23 23 24 23 22 21 18 14 15 20 21 20 18 18 19 18 18 22 26 29 30 30 30 31 33 33 33
6 6 7 7 8 9 10 10 10 10 8 6 4 3 1 2 4 7 10 11 11 12 13 14 16 16 15 13 13 14 14 15 17 17 16 15 14 14 16 18 20 21 21 20 20 21 22 24 24 23 20 23 28 30 29 27 24 21 22 23 24 25 25 24 21 17 16 17 16 14 14 16 18 20 19 18 19 25 32 33 32 31 31 32 34
5 5 6 6 6 8 8 7 8 9 9 7 7 7 5 4 2 1 4 6 8 10 12 13 14 14 13 13 13 14 15 16 15 15 15 15 15 15 13 14 17 19 20 19 19 19 20 22 23 22 20 22 24 25 27 29 28 24 23 22 20 21 22 24 24 21 15 12 13 16 18 20 19 17 17 18 17 17 24 27 28 29 29 30 32
5 4 4 4 6 7 6 6 6 7 7 7 6 6 6 6 6 6 5 5 4 3 6 8 10 11 11 12 14 15 15 15 13 14 15 14 15 16 13 13 15 18 19 19 19 20 20 22 23 21 19 20 21 21 25 31 30 25 24 25 23 21 20 19 20 20 16 16 21 23 23 24 23 20 19 21 20 17 17 19 21 24 26 27 29
5 5 4 4 5 5 5 6 6 5 5 6 6 6 6 7 8 8 8 9 9 7 6 3 3 6 8 9 11 12 11 11 11 12 12 12 12 14 15 14 14 15 18 18 18 18 18 19 21 21 22 21 19 19 22 28 29 28 29 28 23 17 16 15 14 12 11 16 22 22 23 24 25 25 24 23 23 21 19 19 22 24 25 27 28
6 6 6 5 5 5 6 6 5 5 5 5 6 6 7 7 8 8 7 8 9 9 10 8 6 4 4 4 6 7 7 8 9 9 9 9 9 11 13 15 14 14 15 16 15 15 16 17 20 22 23 22 22 23 24 26 26 23 23 24 21 20 22 21 16 9 9 14 18 20 23 23 22 25 27 25 23 24 24 22 21 24 27 27 26
7 7 6 6 6 6 6 5 5 5 5 5 5 6 6 7 8 8 8 8 7 7 8 9 9 8 8 7 6 6 6 5 6 7 6 6 7 8 10 12 13 13 14 15 16 17 17 18 20 21 21 20 21 24 26 27 26 22 21 22 23 23 23 22 18 13 12 16 21 23 23 20 18 21 24 23 22 26 28 24 24 29 30 26 24
6 7 7 6 6 6 6 6 5 6 5 5 5 5 5 6 6 7 8 8 7 7 7 8 9 8 9 9 8 8 7 5 3 5 5 4 4 6 7 8 10 11 12 14 15 16 16 16 17 18 19 20 21 22 24 25 24 23 24 25 24 22 21 21 19 16 14 15 19 22 22 19 19 21 22 24 26 29 29 24 25 31 27 23 27
6 7 7 7 7 7 7 6 6 7 6 5 5 6 6 6 6 6 7 7 8 8 9 9 9 9 9 9 9 9 8 7 7 8 8 7 6 6 7 7 8 10 11 12 13 14 14 14 15 16 17 18 19 20 22 23 22 23 24 23 24 24 24 24 21 17 15 14 17 20 19 19 23 23 24 27 29 29 28 24 25 26 18 15 24
7 7 7 7 8 7 7 7 6 7 7 6 6 6 6 6 6 7 8 8 8 9 10 9 10 10 10 10 9 9 8 9 10 11 10 10 10 10 10 11 11 12 12 13 14 14 14 14 15 16 16 17 17 18 20 20 21 22 21 21 23 24 25 24 22 19 18 17 18 21 19 19 24 25 25 27 27 28 29 28 27 25 19 15 18
7 7 7 7 8 7 7 7 7 7 7 7 7 7 7 7 8 9 9 9 9 10 10 10 10 10 10 10 10 9 10 11 12 12 11 11 11 11 11 12 13 14 15 15 16 16 16 16 16 16 16 17 17 17 18 19 19 19 17 17 18 18 19 21 21 22 22 20 20 22 22 23 25 26 25 25 26 27 26 24 24 25 23 19 19
6 7 7 7 8 8 7 7 7 7 7 8 8 8 9 9 10 11 11 11 11 11 11 11 11 11 11 11 12 11 11 11 13 13 13 14 14 14 14 15 16 17 18 18 18 18 18 18 18 18 18 18 18 19 19 20 21 19 17 17 17 16 17 19 21 23 23 23 23 24 26 27 27 28 29 28 27 25 21 22 26 25 22 19 19
6 7 7 8 8 8 8 7 7 8 8 8 8 9 10 11 11 12 12 12 12 12 12 13 12 12 12 13 13 12 13 14 13 12 12 13 13 15 15 16 17 18 19 20 21 21 20 20 20 21 21 21 22 22 23 23 22 21 19 20 20 18 18 19 21 22 23 25 27 28 30 30 30 33 36 34 32 30 26 28 30 27 25 25 25
6 6 6 7 7 7 8 8 8 9 9 8 8 9 10 11 11 11 12 12 12 13 13 13 13 13 13 13 13 12 13 14 13 12 13 14 14 14 14 14 15 16 17 18 18 18 19 19 19 20 21 21 20 20 21 19 19 19 19 20 20 20 20 20 20 21 22 24 26 28 30 32 32 34 36 36 36 35 34 35 34 29 27 27 27
5 5 5 6 7 7 7 8 8 9 9 9 9 10 11 11 11 12 11 11 12 12 12 12 13 13 13 13 13 13 13 13 15 17 18 17 16 14 12 13 14 15 15 16 15 15 15 16 17 17 17 15 14 15 15 16 17 18 19 19 20 21 22 22 23 24 24 25 27 29 31 33 34 36 37 38 39 38 37 35 31 27 24 23 24
5 5 6 6 6 6 7 8 8 8 9 9 10 11 11 11 12 12 11 11 11 12 11 12 12 12 13 13 13 15 16 16 17 19 18 17 16 14 12 13 14 15 15 14 13 13 13 13 14 14 12 11 12 14 16 18 20 20 20 21 22 23 25 26 26 26 25 25 26 27 29 30 31 33 35 37 40 41 40 34 29 26 24 19 18
5 6 6 6 6 6 6 7 7 8 8 9 10 10 10 11 11 11 11 11 11 11 11 12 12 12 13 13 13 15 16 15 16 17 17 16 15 14 13 13 14 15 15 14 12 12 11 11 12 12 10 11 13 15 17 18 20 21 22 22 22 23 25 25 25 26 26 27 27 28 29 29 29 29 30 31 34 37 38 37 35 32 28 22 20
6 6 6 6 6 6 5 6 7 7 7 8 9 9 10 10 11 11 11 11 11 11 11 12 12 12 12 13 13 13 13 13 14 15 15 14 13 14 13 12 13 15 17 17 17 16 14 13 14 15 14 15 16 18 20 22 23 24 25 25 24 24 24 24 26 29 32 34 35 35 36 36 36 36 36 35 35 35 37 38 38 36 32 29 27
5 6 5 5 5 5 5 6 7 6 6 7 8 8 9 10 10 10 10 10 10 11 12 12 12 12 12 13 12 12 11 11 11 12 11 11 11 13 12 10 11 15 18 19 19 18 17 16 16 17 18 19 21 22 23 25 26 27 29 27 24 24 27 31 34 36 37 39 40 40 40 40 40 39 39 38 37 37 37 38 38 37 36 35 33
4 5 5 5 5 6 5 5 6 5 6 6 6 7 8 9 9 10 10 10 10 11 11 12 12 12 12 12 12 11 10 8 8 9 9 8 10 12 12 10 11 14 17 17 16 15 17 17 17 19 20 21 23 24 24 25 25 27 29 28 27 28 31 35 39 39 39 38 37 37 37 37 36 36 34 34 34 34 34 35 36 38 39 38 36
4 4 5 5 5 5 4 4 4 4 5 6 6 6 7 7 8 9 10 10 11 11 11 11 11 12 12 12 12 11 10 7 6 5 7 9 11 13 13 13 15 17 18 17 15 15 16 17 18 19 21 23 25 27 27 27 27 28 28 26 25 25 26 29 32 34 34 32 30 31 31 31 32 33 32 32 32 32 33 34 34 35 37 39 38
4 5 5 5 4 4 3 4 4 4 5 5 5 5 6 7 6 8 9 10 11 11 11 10 10 10 11 12 13 14 11 7 5 7 10 13 15 15 16 18 20 20 18 16 16 16 16 18 19 21 24 26 28 28 27 26 26 25 23 22 21 22 24 27 28 28 27 26 25 26 26 26 28 29 29 30 30 29 30 32 33 35 35 36 36
4 5 5 4 4 4 4 4 4 4 4 5 5 5 6 6 6 7 8 9 11 11 11 12 12 11 12 12 12 14 12 7 7 10 14 16 17 18 20 21 20 18 16 15 16 16 17 19 21 25 27 27 25 24 23 23 23 23 23 23 23 24 26 28 26 23 22 22 22 23 24 24 26 27 27 29 29 30 31 32 33 35 36 38 38
4 4 5 4 4 5 4 5 5 4 4 5 4 3 5 7 7 7 8 9 10 10 10 12 12 12 12 12 12 13 11 7 8 13 16 17 18 20 21 21 19 16 14 14 14 16 18 21 23 23 22 21 20 21 22 23 23 23 23 24 24 24 24 24 24 22 21 22 22 23 25 26 28 29 30 31 31 31 32 32 32 32 34 36 38
3 3 4 4 4 4 4 5 5 3 2 4 5 4 6 8 7 7 8 9 10 10 10 10 10 10 11 11 11 13 11 8 10 15 18 18 20 21 21 21 19 16 14 12 13 16 19 20 19 17 17 18 19 20 22 22 22 22 23 23 23 22 21 21 22 22 22 23 24 25 27 29 30 30 31 31 31 31 31 32 32 32 31 32 33
2 3 3 3 3 3 3 4 5 4 2 4 5 4 7 8 8 7 8 8 9 10 9 9 9 10 10 9 9 10 10 9 12 17 19 19 20 21 21 20 19 17 15 14 16 19 21 20 17 15 16 17 18 19 20 20 21 21 22 21 21 20 19 19 21 22 23 24 24 25 27 28 29 29 30 30 31 31 30 30 30 29 29 29 30
3 3 3 3 2 3 4 4 4 4 3 4 4 3 5 6 7 6 5 6 7 6 7 8 8 8 8 8 8 9 8 9 12 16 18 18 19 20 20 18 17 17 18 18 20 22 22 21 18 16 15 15 15 17 17 17 18 19 19 19 18 17 17 18 18 17 18 21 23 24 24 25 25 27 28 28 29 30 30 30 29 29 29 28 26
3 3 4 4 1 3 5 6 4 4 4 4 4 3 1 3 5 3 2 5 8 6 4 4 4 5 6 6 6 7 8 8 11 15 16 15 16 17 17 16 16 17 18 19 21 22 22 22 21 17 15 15 16 17 17 17 17 18 18 19 19 18 18 19 18 18 21 24 25 25 25 26 26 26 26 26 27 28 28 29 29 29 29 28 26
3 4 3 2 1 4 5 6 5 4 5 5 5 4 4 5 5 3 3 5 9 8 5 4 3 4 5 4 5 8 9 11 13 15 16 16 15 15 14 14 15 17 18 18 19 21 22 22 20 17 15 16 17 18 18 19 19 19 19 19 20 20 21 20 20 22 25 25 24 25 27 27 27 27 26 27 28 29 30 31 30 30 29 27 27
4 4 3 2 4 5 5 5 5 5 5 5 6 6 6 5 5 5 4 6 8 8 7 6 5 5 5 5 7 10 12 13 15 17 18 18 17 15 14 13 14 17 18 16 17 19 20 19 17 15 15 16 16 16 17 18 18 19 19 19 19 20 20 20 21 24 25 23 23 25 26 26 26 27 28 29 30 31 31 31 30 28 27 27 26
4 5 5 4 4 4 4 4 5 5 5 5 6 7 7 6 5 5 5 8 10 10 10 8 7 6 6 7 9 11 13 14 15 17 19 18 17 17 16 14 13 15 15 14 15 17 17 15 14 15 16 16 15 16 16 16 17 18 18 18 19 19 19 20 22 23 22 22 24 25 24 24 26 27 28 30 30 29 29 28 27 25 25 26 26
4 4 5 5 5 5 5 5 5 5 5 5 6 6 7 8 7 6 7 10 11 11 11 11 11 10 9 10 12 13 15 14 15 17 18 17 16 17 17 15 13 11 10 10 13 14 13 12 13 14 15 15 15 16 16 16 16 17 17 18 19 19 20 21 22 21 21 22 23 22 22 24 26 27 27 27 27 26 26 26 26 26 25 25 25
4 5 4 4 5 5 6 6 6 5 4 5 6 6 6 7 7 8 9 9 9 10 11 12 11 10 11 12 13 14 15 15 15 18 18 15 15 16 16 16 13 9 6 7 10 11 11 12 13 14 14 14 15 15 16 16 16 17 17 18 19 19 20 21 20 20 22 23 21 20 21 23 24 25 25 25 24 25 26 26 26 25 24 24 25
5 6 6 6 5 4 6 6 6 5 5 4 5 6 6 7 7 8 9 9 9 10 11 10 9 10 11 12 12 13 13 14 15 17 17 15 14 13 15 17 15 10 7 8 10 11 12 13 14 14 14 14 14 15 15 16 16 17 17 18 19 20 20 20 19 21 23 22 21 21 22 22 23 23 24 24 24 25 26 26 25 25 24 24 25
6 7 7 7 7 6 6 6 6 5 4 4 4 5 6 7 9 9 9 9 9 10 10 10 11 11 13 13 13 13 12 12 13 15 15 14 13 13 14 16 15 13 11 10 10 11 11 13 13 14 14 14 15 15 15 16 16 17 18 18 19 20 20 20 21 23 23 21 21 21 21 21 22 23 23 24 25 25 26 26 26 26 26 26 27
7 7 6 5 6 6 5 5 5 5 6 6 6 7 8 9 10 9 9 9 10 10 11 12 12 11 12 12 12 12 12 12 13 14 16 15 13 14 15 16 15 14 13 12 11 11 11 12 13 13 13 14 15 15 16 16 17 18 18 19 19 19 20 21 22 22 21 21 21 21 21 22 23 23 24 25 26 26 27 27 27 28 28 29 29
8 8 7 5 4 4 5 6 6 7 7 8 8 9 10 10 9 9 9 10 11 12 12 12 11 11 12 12 11 10 10 11 12 13 14 15 15 14 14 14 14 14 14 13 12 12 12 13 13 13 13 14 15 15 16 17 17 18 19 20 20 19 20 21 21 20 20 21 21 21 23 24 24 25 26 27 27 27 27 28 28 27 28 29 29
9 11 12 10 8 7 7 7 7 7 8 8 9 9 10 10 10 10 11 11 12 12 12 12 12 13 13 13 11 9 10 11 11 13 14 16 17 17 15 14 14 15 15 14 14 13 13 13 13 13 14 14 15 15 16 16 17 18 19 19 20 20 20 20 19 19 20 21 22 23 24 24 26 28 29 28 28 27 27 28 28 27 26 27 29
10 12 14 14 13 10 8 7 8 8 8 9 9 10 10 11 11 11 11 12 12 12 12 13 14 14 15 15 15 13 13 14 15 16 16 17 19 20 19 18 17 16 15 15 15 14 14 14 14 15 15 15 15 16 17 17 17 18 19 19 19 20 20 20 20 20 20 21 23 24 24 25 28 31 31 30 29 29 29 29 29 27 27 27 29
10 11 12 13 13 10 8 9 9 9 10 11 11 11 12 12 12 12 12 12 13 14 14 15 16 17 17 18 18 19 19 19 19 18 18 18 19 21 21 20 18 17 17 17 17 16 15 15 15 16 16 16 16 17 18 18 18 18 19 19 19 20 21 22 21 21 22 22 22 22 24 28 32 32 32 31 30 30 31 30 28 28 28 29 29
10 9 10 12 13 13 12 11 11 12 13 14 15 15 14 13 13 13 13 13 14 15 16 17 17 18 19 20 20 21 21 21 20 18 17 17 19 20 21 20 18 17 18 19 18 17 16 16 16 17 17 17 17 17 18 18 18 19 20 20 20 21 22 23 23 24 24 22 21 22 28 33 33 31 31 31 30 30 30 29 29 29 29 29 30
11 10 10 12 14 15 15 14 13 13 13 14 14 14 14 13 14 14 15 16 17 17 18 18 19 20 21 21 21 21 20 20 20 19 18 19 19 19 19 19 19 19 19 19 19 18 17 17 17 18 18 18 18 18 18 18 19 20 21 21 21 22 23 25 26 25 22 20 21 28 33 34 32 30 30 30 30 30 30 30 30 30 29 30 30
11 11 12 12 13 14 14 14 14 14 14 15 16 17 18 18 19 19 20 21 20 20 19 20 20 20 19 19 19 17 16 16 17 19 19 19 18 18 18 20 20 19 18 18 18 17 16 16 17 18 19 20 20 19 19 19 19 19 20 21 22 24 24 24 22 19 17 20 27 34 35 33 31 30 31 31 31 30 30 30 30 30 30 30 30
12 12 13 13 13 14 14 15 15 16 16 16 17 17 17 18 18 17 17 17 17 17 17 18 18 18 19 20 19 17 16 16 17 18 19 20 19 20 20 20 20 19 20 19 18 17 16 16 17 18 20 21 21 21 21 20 19 19 20 21 23 23 21 19 18 17 20 26 33 35 33 32 32 32 31 31 31 30 29 30 31 31 30 30 29
13 14 14 14 14 14 14 14 14 14 14 14 14 15 15 15 16 17 17 17 18 18 18 17 18 18 19 19 18 18 18 18 18 19 20 21 21 21 20 19 19 19 19 19 19 18 17 16 16 18 20 21 22 22 21 20 20 20 19 19 20 20 20 19 20 22 26 32 35 34 32 32 33 33 33 32 31 30 30 30 30 30 30 29 30
14 14 14 14 14 13 13 13 14 15 15 15 16 16 16 16 17 17 18 18 19 18 17 16 17 18 18 17 17 17 17 18 18 18 18 19 19 20 21 20 20 20 21 20 19 17 15 15 16 17 19 21 22 22 22 21 20 19 18 18 20 21 22 22 22 26 31 35 35 33 33 33 33 33 33 32 31 31 30 29 29 29 29 30 31
16 15 15 14 14 13 14 15 15 15 15 15 16 16 17 17 17 16 16 17 17 17 17 17 17 17 17 17 17 17 17 17 19 20 21 21 22 22 22 20 20 20 20 19 18 18 17 17 16 16 17 19 21 21 21 21 20 19 18 19 21 23 22 22 25 30 36 37 34 32 33 34 33 34 34 34 34 32 30 28 27 28 30 31 32
17 16 14 13 14 14 15 15 15 14 15 16 16 16 15 14 14 14 15 15 16 17 17 17 17 17 17 17 18 18 18 19 20 20 21 22 23 23 23 22 21 21 20 18 18 17 16 14 13 14 17 19 20 20 20 21 22 21 21 21 23 24 24 25 28 33 36 35 33 33 33 34 34 34 35 35 34 32 29 26 25 27 30 31 32
15 14 13 12 13 14 14 14 14 15 16 15 14 14 13 13 13 13 14 14 15 16 16 16 16 17 17 18 18 18 19 19 19 19 20 22 22 23 23 24 23 22 22 22 21 18 14 12 13 15 17 17 17 19 22 24 24 24 23 24 25 25 25 27 31 34 34 33 33 34 34 34 34 35 35 34 33 30 27 24 23 26 28 29 30
12 12 11 12 13 14 14 14 14 14 14 13 12 12 12 11 11 12 13 14 15 15 15 16 16 17 18 18 18 17 18 18 19 20 21 21 22 22 24 25 25 24 23 21 20 17 15 14 14 13 12 14 18 24 26 25 25 25 24 24 24 25 27 30 34 34 33 31 32 34 33 33 33 33 33 32 31 30 27 24 23 24 25 27 28
Wind_Direction
55 55 46 42 44 50 62 69 82 139 202 219 233 255 267 268 270 274 269 255 244 247 250 248 247 250 251 251 252 250 249 253 255 257 259 259 259 262 262 259 257 259 264 264 258 256 255 254 254 256 268 279 272 257 245 238 236 237 236 237 238 239 239 239 241 258 262 265 270 269 268 273 260 227 213 214 219 223 227 231 233 233 236 241 244
47 59 49 38 38 42 50 57 56 56 86 166 197 225 250 260 261 266 271 268 258 254 255 254 250 244 243 247 249 250 253 255 255 256 257 257 260 264 263 261 261 266 273 272 269 269 266 260 257 257 265 281 283 276 265 250 240 237 236 235 238 240 242 240 238 245 254 255 260 267 270 271 272 266 245 230 225 224 223 226 229 231 234 239 243
29 52 56 44 37 39 42 45 41 42 55 64 64 89 156 231 234 246 262 269 262 254 252 254 257 258 260 260 256 255 256 256 254 253 254 256 255 258 267 270 269 268 271 274 274 274 273 268 265 265 266 267 269 274 275 266 252 243 240 239 237 236 237 240 239 242 251 256 260 275 286 275 266 268 268 265 254 235 224 222 224 227 232 237 241
19 34 51 48 40 39 36 37 37 36 41 41 34 41 44 39 40 282 265 262 252 241 231 231 242 258 270 274 272 267 260 256 255 251 248 251 250 250 260 271 274 274 273 274 274 273 276 276 273 274 276 272 269 275 282 278 267 254 249 251 250 245 242 241 241 244 252 268 269 264 261 257 256 261 262 267 272 254 236 231 229 227 230 235 239
27 32 40 44 45 38 22 25 36 31 26 25 21 20 22 21 15 8 5 359 336 287 246 230 230 241 249 257 263 264 263 261 260 254 248 251 256 255 251 254 265 273 274 271 269 271 275 279 281 283 284 284 288 291 290 286 283 275 266 262 259 257 255 250 249 250 248 253 259 259 257 256 261 267 262 255 257 258 253 246 241 238 236 237 239
40 47 41 41 46 36 17 17 21 15 10 10 4 358 3 7 2 2 6 3 1 358 342 315 253 247 248 249 253 256 262 265 263 259 253 251 258 260 255 249 250 262 270 271 271 274 278 280 282 281 278 277 283 289 288 286 289 293 288 278 274 279 279 269 263 264 257 255 258 262 266 266 264 264 262 260 259 260 258 248 239 238 238 242 246
43 51 44 42 44 38 32 24 13 9 6 357 349 347 350 350 348 350 354 354 354 353 350 358 9 345 315 294 275 268 271 271 271 273 262 250 253 261 260 254 253 262 271 273 273 274 276 276 278 280 280 278 277 278 280 277 278 289 294 291 295 303 300 290 283 288 301 294 285 275 268 266 266 266 266 267 265 262 262 258 247 239 234 236 247
39 51 51 46 41 43 46 36 22 21 14 2 357 352 344 337 335 336 339 341 341 342 342 347 352 349 344 340 327 316 308 290 277 281 274 255 256 270 271 264 265 271 275 278 281 280 279 279 282 286 285 280 277 276 277 277 279 284 290 291 286 280 280 284 290 298 298 288 282 277 271 266 263 264 266 267 263 259 258 257 254 250 242 233 240
40 49 54 48 38 42 46 35 30 32 25 17 16 5 352 344 337 333 331 332 334 335 337 337 336 334 333 331 330 335 340 338 322 315 313 299 284 287 286 279 277 279 282 291 296 294 293 294 295 296 292 285 282 281 281 283 285 284 284 286 284 276 275 279 278 278 275 266 266 269 269 265 260 257 256 255 255 258 258 251 247 252 249 239 239
42 45 49 48 40 40 39 30 32 32 23 20 21 11 4 359 348 345 346 344 342 342 341 336 332 328 326 324 325 331 334 331 330 331 329 327 322 313 306 299 296 296 297 301 305 306 309 311 308 306 305 299 293 292 292 288 283 279 279 283 283 276 272 272 269 267 264 257 260 265 263 262 260 254 250 250 252 255 255 247 243 249 248 238 245
36 39 42 43 39 38 34 28 34 33 19 15 18 10 5 4 0 2 4 356 350 347 344 340 337 333 329 323 321 323 319 313 317 320 317 313 311 308 307 307 306 305 304 301 301 303 304 308 311 310 310 311 310 310 307 299 291 286 282 283 284 274 263 262 264 265 259 249 253 261 263 265 264 260 257 258 259 256 252 246 242 241 232 218 237
28 27 29 33 31 28 27 26 30 30 17 10 11 3 359 6 8 5 1 355 351 348 345 343 341 338 336 331 326 322 313 306 310 317 319 317 314 311 309 308 304 301 302 301 300 301 299 300 304 306 307 312 315 315 312 307 305 301 293 290 293 286 274 270 269 266 260 256 258 261 262 264 266 267 267 266 263 260 257 254 248 242 237 229 229
31 20 16 22 22 14 16 23 24 21 16 11 6 0 3 11 10 3 358 355 354 352 351 351 347 344 345 342 338 335 327 319 319 322 324 322 320 317 313 309 306 302 300 298 296 296 297 297 297 298 299 301 303 305 304 303 303 305 304 304 304 299 291 288 287 283 274 265 260 261 266 266 264 267 271 269 267 264 262 263 260 254 253 256 252
41 23 8 13 15 7 8 16 17 14 13 12 6 6 13 13 6 1 358 355 354 353 351 350 348 348 349 344 339 338 336 336 338 338 337 336 330 326 323 319 315 307 300 297 293 291 291 291 292 292 292 293 295 295 294 294 296 298 299 301 300 297 293 290 290 288 279 266 258 260 270 273 268 270 272 269 267 268 268 267 264 257 255 261 262
46 27 8 9 8 5 7 10 14 11 8 9 12 13 15 11 5 4 2 357 355 352 349 347 345 346 347 343 340 335 331 336 348 355 352 348 343 340 338 331 320 310 303 297 291 289 288 286 286 287 288 290 291 290 290 292 298 304 305 302 299 296 292 290 289 287 281 275 268 266 272 274 270 271 272 269 267 269 270 268 264 263 262 262 260
43 27 12 12 6 7 9 8 12 8 3 9 16 14 12 10 8 7 2 358 355 351 349 347 345 344 344 343 341 336 332 337 347 350 349 350 352 351 345 334 323 312 305 301 294 290 288 285 283 282 285 290 290 290 297 305 310 315 315 310 305 301 296 291 287 286 285 284 282 279 278 278 276 276 276 275 273 272 272 271 266 262 259 254 254
27 22 14 10 7 11 11 11 14 6 5 15 17 11 9 8 7 3 358 356 354 351 350 348 347 345 343 343 341 334 332 336 340 342 347 355 359 357 350 339 327 315 307 305 303 299 293 291 293 291 291 300 304 304 308 310 313 318 319 314 308 302 297 294 293 293 290 287 286 284 283 284 283 282 280 278 277 274 270 267 266 262 256 249 254
9 18 13 3 6 14 12 16 15 5 10 23 17 9 9 6 3 360 355 352 351 351 351 348 346 346 342 341 341 335 332 336 338 339 345 352 358 360 353 339 326 322 323 325 326 326 322 324 329 327 323 325 322 316 314 316 320 324 323 321 314 304 299 298 298 295 291 286 284 282 283 284 284 285 285 283 282 279 270 264 263 263 261 257 259
0 6 5 359 4 13 17 22 18 9 18 27 17 10 11 8 4 359 353 352 351 350 350 347 345 346 343 340 339 335 334 336 335 336 341 346 356 1 354 338 328 333 338 336 331 329 326 329 335 334 330 327 322 319 320 323 325 324 322 320 314 305 301 298 295 294 294 292 292 290 288 287 287 287 288 287 287 287 281 275 268 263 261 261 260
358 356 355 360 4 12 20 22 19 15 20 24 16 13 13 9 7 6 1 357 353 347 346 346 344 344 343 340 336 332 333 333 332 338 345 350 0 7 2 346 331 330 330 328 324 320 317 317 318 315 311 307 306 307 310 314 318 318 318 317 309 301 300 298 294 296 297 295 293 293 292 292 292 291 289 287 285 283 281 280 274 265 260 261 260
357 352 351 2 9 15 17 12 13 18 21 19 14 15 17 10 7 11 8 1 355 352 351 351 349 347 343 339 335 334 336 331 327 340 356 3 7 8 4 349 333 330 327 322 318 316 315 314 313 312 311 309 307 305 305 307 311 312 311 308 302 299 301 301 299 300 301 298 296 294 293 293 293 292 291 288 285 282 279 278 276 268 260 255 255
356 2 0 7 10 8 5 5 14 21 18 10 6 16 19 10 9 15 12 4 0 1 4 4 359 353 347 345 347 351 356 352 340 354 18 18 10 5 359 349 342 339 333 321 314 312 311 312 314 314 313 311 309 310 311 311 311 312 312 311 309 309 309 307 306 305 304 303 300 297 295 294 293 292 292 290 288 285 282 278 277 276 269 260 255
5 8 360 360 1 356 2 23 25 20 14 2 359 15 14 3 12 21 15 9 5 4 8 11 7 1 359 358 360 4 12 25 39 41 31 17 5 357 349 343 340 338 333 322 315 313 312 314 314 310 308 308 310 315 319 321 321 323 327 328 327 325 320 314 312 310 306 303 300 297 297 297 294 293 293 293 291 290 288 285 282 282 281 277 271
10 2 352 354 360 356 6 29 23 10 7 359 355 11 11 5 18 24 19 16 12 6 6 8 8 11 13 10 7 8 17 51 65 35 16 3 354 346 340 338 337 337 336 330 322 318 316 313 309 307 308 314 321 327 332 334 335 337 338 336 330 324 319 314 310 307 302 298 295 293 294 295 293 291 292 292 292 292 290 289 287 285 285 285 283
13 358 354 356 357 356 11 27 18 359 358 357 349 0 14 13 18 23 25 22 13 8 11 10 10 13 11 9 11 9 14 49 52 17 1 353 351 348 344 344 344 341 340 338 330 321 314 310 310 313 319 328 336 339 340 341 340 338 336 333 327 321 317 313 307 300 293 291 290 289 291 293 292 291 293 292 291 290 287 286 285 285 285 285 283
9 348 348 353 350 359 24 23 3 337 345 358 353 12 32 23 13 21 32 24 10 9 14 12 12 13 8 8 10 3 2 18 15 359 353 353 353 352 352 355 357 356 352 343 329 321 319 320 324 331 340 344 342 338 338 340 341 338 335 332 328 323 316 309 302 294 288 288 291 292 293 295 295 295 295 293 290 287 285 283 282 281 281 282 282
359 345 348 347 344 5 27 9 351 347 16 14 2 27 47 29 12 23 36 25 10 6 5 7 13 10 3 6 6 354 353 359 352 344 345 347 348 348 350 352 355 358 355 343 332 330 331 334 340 346 347 346 344 341 339 338 338 335 332 332 332 328 321 313 306 298 293 295 300 302 303 305 305 302 300 297 292 290 287 284 282 282 283 282 281
351 335 322 312 330 16 4 339 339 356 10 8 357 22 56 37 14 21 26 12 10 4 350 359 13 4 353 357 358 349 348 350 344 340 340 341 342 342 343 344 347 350 347 340 335 335 338 341 343 342 338 338 340 338 334 332 334 334 332 334 335 333 331 330 325 318 316 320 323 323 323 321 318 314 309 303 298 296 295 292 288 286 287 285 282
312 299 295 290 337 44 359 331 341 1 352 349 349 351 6 346 345 348 329 348 7 12 344 338 348 343 343 347 343 337 332 327 333 340 342 341 340 338 335 334 336 338 338 334 330 332 338 342 339 334 335 341 341 337 334 336 339 339 338 339 339 340 341 341 340 340 341 338 335 334 333 330 328 326 323 316 310 306 304 303 301 298 294 288 283
297 294 290 285 46 43 354 331 343 351 338 338 343 331 298 289 300 290 282 334 354 360 357 347 330 330 339 328 313 316 316 316 326 338 343 343 342 341 336 329 327 331 335 331 326 328 333 332 327 330 343 348 342 338 340 343 342 340 340 340 341 342 343 342 343 343 341 338 335 333 331 330 328 329 329 326 322 317 312 309 306 306 306 302 294
321 317 328 16 34 19 342 328 337 337 332 334 335 330 320 297 274 265 288 329 337 333 333 333 328 334 340 332 326 326 326 327 332 337 340 341 341 342 340 330 328 334 334 327 325 328 325 318 320 335 346 342 335 336 340 340 338 337 337 337 336 337 337 337 338 337 335 334 333 330 328 328 327 327 326 324 322 319 317 313 307 303 305 306 304
329 327 330 346 0 341 316 315 317 315 319 328 329 333 335 325 293 267 292 318 319 313 309 305 300 304 311 316 323 329 331 332 334 337 341 341 340 343 341 333 332 336 330 321 323 325 321 318 327 339 339 334 334 338 339 337 334 332 332 331 330 330 330 330 330 331 332 334 333 329 328 328 326 324 323 323 323 323 323 322 317 311 307 305 304
320 314 316 326 331 325 317 310 304 305 316 329 331 334 334 332 330 321 313 311 308 302 298 293 286 283 291 302 311 319 324 327 331 338 341 340 341 346 343 334 331 327 318 315 316 315 319 330 334 332 331 330 332 335 334 333 331 328 327 325 324 325 327 328 327 328 331 332 329 326 325 326 325 323 322 322 324 325 326 326 324 320 315 310 308
285 279 283 301 316 319 312 302 298 301 311 319 321 322 324 326 328 323 317 317 316 307 301 297 287 279 287 301 308 314 319 323 330 340 341 336 338 343 341 334 329 315 298 309 311 308 320 331 326 320 323 325 327 329 329 328 327 325 324 323 323 324 325 325 326 328 329 328 326 323 324 325 324 323 322 321 321 322 323 324 324 322 321 320 317
271 272 262 257 265 281 286 285 284 287 297 307 311 316 323 323 314 305 303 308 309 306 307 311 302 285 286 294 300 303 307 311 324 337 337 328 324 326 327 328 327 319 312 316 313 312 322 323 316 316 319 320 320 322 322 322 324 323 323 323 323 323 322 323 326 326 325 323 322 321 323 325 324 324 323 320 319 320 319 319 321 320 319 319 317
260 270 256 237 231 236 249 261 270 279 290 304 313 315 311 299 288 286 291 297 300 302 307 312 307 295 290 289 288 286 285 292 309 325 329 325 314 301 299 304 308 310 315 315 309 312 317 313 310 312 313 314 316 317 317 318 319 318 319 321 321 320 320 321 323 323 321 319 319 321 324 326 325 325 323 319 318 318 317 317 318 317 316 316 315
241 263 266 238 225 234 250 264 276 286 292 295 296 292 283 276 275 280 288 294 296 294 294 296 297 293 290 286 281 279 279 285 298 313 324 326 312 290 280 282 286 293 303 305 303 305 306 303 303 306 307 309 312 311 312 315 316 315 317 317 316 316 316 317 319 320 318 317 318 320 323 325 324 324 323 318 316 316 315 316 318 317 317 318 316
234 251 260 256 253 264 276 279 276 274 272 267 262 261 263 267 275 283 284 284 282 279 282 288 294 295 295 294 290 281 275 278 288 302 314 320 314 297 282 276 279 287 293 295 296 298 298 297 299 300 301 304 306 307 308 310 311 312 315 315 313 313 314 315 317 317 316 317 318 319 320 320 321 322 321 318 314 312 312 315 316 317 319 320 319
235 236 234 237 245 251 256 262 264 265 267 266 265 266 267 269 271 272 273 276 278 281 287 292 293 293 296 300 298 282 264 265 280 297 306 310 309 302 291 282 283 287 289 290 290 289 288 291 295 297 298 299 300 303 305 305 306 308 311 311 312 312 313 315 316 317 317 317 317 318 318 318 318 319 318 316 313 311 310 311 312 313 316 317 317
237 236 229 228 232 239 247 253 255 258 262 263 263 264 265 266 268 271 275 280 285 290 294 295 296 299 302 303 302 293 280 277 286 297 301 302 302 301 296 291 289 289 290 293 293 287 284 286 290 292 294 294 294 298 301 301 300 303 306 307 308 309 311 312 313 313 314 314 314 315 317 318 319 318 316 314 313 312 310 308 308 310 313 315 315
238 236 225 216 216 225 236 239 240 245 251 255 259 262 264 267 271 275 279 284 288 292 293 293 296 298 297 295 293 288 281 278 280 284 287 292 298 299 296 291 289 291 294 297 295 291 287 287 288 290 291 290 290 294 297 297 296 298 302 304 303 304 307 310 311 311 311 313 314 315 316 317 318 317 314 313 314 314 312 309 308 309 312 315 316
239 230 213 208 211 219 225 230 236 241 243 245 249 252 255 262 268 274 279 284 285 284 283 283 283 282 281 283 287 284 277 271 270 271 276 284 290 290 287 285 289 296 300 299 296 295 293 290 291 292 291 290 291 294 295 296 296 296 298 298 296 298 304 309 312 313 313 312 312 314 317 319 319 317 315 313 313 314 314 311 310 311 313 315 317
232 229 220 217 220 221 222 227 235 240 243 247 251 254 260 269 276 278 280 280 277 274 273 273 274 273 274 281 287 286 277 270 267 267 269 272 274 275 279 287 295 301 301 297 294 294 293 292 293 294 293 292 293 293 292 294 296 296 297 296 294 294 299 304 309 312 311 309 314 318 320 320 319 317 316 314 313 314 314 312 311 313 314 315 317
229 233 234 233 232 230 232 237 242 247 251 254 255 256 259 260 262 264 265 264 263 264 266 269 273 279 287 295 298 292 279 271 269 268 269 270 274 280 289 296 301 304 303 300 297 294 292 291 293 297 297 297 296 293 291 293 295 296 298 300 299 298 299 302 307 309 306 310 317 321 321 319 317 315 314 313 312 312 312 312 313 314 314 315 316
228 231 236 238 239 240 243 247 249 252 255 255 256 259 263 264 267 274 276 274 275 279 280 281 287 295 303 306 305 298 288 280 277 278 282 288 292 293 292 293 296 301 304 304 302 298 295 293 294 296 298 299 299 297 295 293 293 294 297 300 302 302 302 303 303 302 304 313 319 321 318 315 313 312 311 311 311 309 307 310 313 313 312 313 314
228 230 233 236 240 243 249 255 260 265 271 274 277 280 284 285 287 290 292 291 292 291 288 288 293 297 298 297 298 299 299 295 291 289 291 294 297 297 295 295 298 303 306 305 302 297 292 290 292 297 300 301 301 301 300 298 297 297 300 302 302 300 298 297 297 300 308 316 320 319 316 314 313 312 311 310 309 306 304 307 312 312 312 314 314
234 237 238 241 246 252 257 263 268 271 273 276 277 277 279 283 285 286 288 291 293 294 294 297 301 302 302 304 307 309 310 310 310 308 305 302 303 304 302 300 300 302 302 302 300 296 291 288 290 297 304 305 304 303 304 303 300 299 301 303 301 297 295 296 299 305 313 317 317 317 317 317 315 313 311 308 305 302 301 305 311 314 314 315 315
228 237 243 247 252 258 262 265 268 269 271 276 280 280 282 284 285 286 289 295 301 306 309 311 311 311 312 314 316 317 318 320 321 320 317 315 314 312 308 307 308 308 305 301 296 292 289 287 288 294 304 309 310 309 309 308 305 302 300 299 297 295 294 297 303 309 314 316 316 317 319 319 315 312 310 307 305 301 298 301 310 316 316 316 316
224 233 241 247 254 262 267 269 273 277 279 279 281 284 288 294 299 302 305 307 310 313 314 313 315 318 320 321 322 324 324 322 319 317 316 317 318 317 317 316 315 314 313 311 309 304 295 287 287 297 308 312 311 309 309 310 307 301 296 294 293 291 291 296 305 312 315 316 317 319 320 319 317 315 312 308 305 301 296 299 311 319 318 316 315
224 230 240 253 263 271 274 273 272 275 277 282 290 299 304 308 310 312 314 315 314 315 316 318 321 325 326 324 323 323 322 322 324 326 326 324 323 324 324 322 319 316 312 309 306 303 298 294 299 305 309 309 308 309 312 312 307 300 295 292 290 290 294 302 311 316 317 317 318 320 320 319 319 317 313 310 307 301 296 300 314 321 319 316 315
230 237 249 258 260 262 264 265 267 274 285 297 307 309 307 308 312 317 321 321 318 317 319 321 322 323 321 320 320 321 323 326 329 329 327 325 323 322 322 321 320 320 319 313 306 301 299 302 304 303 298 302 311 317 318 313 305 301 298 296 294 297 304 311 315 317 318 319 320 319 320 321 320 317 313 310 307 301 295 301 316 323 320 316 315